| time (UTC) | temp F | wind direction | speed MPH | gust MPH | rain 1hr in | rain 24hr in | rain mn in | humidity % | barometer mb |
| 20260508023004 | 74 | 343 | 3.0 | 8.0 | 0.00 | 0.00 | 0.00 | 99 | 1004.9 |
| 20260508021504 | 74 | 347 | 4.0 | 6.0 | 0.00 | 0.00 | 0.00 | 99 | 1004.7 |
| 20260508020004 | 74 | 330 | 2.0 | 4.0 | 0.00 | 0.00 | 0.00 | 99 | 1004.8 |
| 20260508014504 | 74 | 344 | 3.0 | 8.0 | 0.00 | 0.00 | 0.00 | 99 | 1004.9 |
| 20260508013005 | 74 | 330 | 3.0 | 6.0 | 0.00 | 0.00 | 0.00 | 99 | 1004.8 |
| 20260508011504 | 75 | 337 | 4.0 | 6.0 | 0.00 | 0.00 | 0.00 | 99 | 1004.8 |
| 20260508010004 | 75 | 321 | 4.0 | 9.0 | 0.00 | 0.00 | 0.00 | 100 | 1004.7 |
| 20260508004503 | 75 | 339 | 3.0 | 6.0 | 0.00 | 0.00 | 0.00 | 100 | 1005.1 |
| 20260508003005 | 75 | 326 | 3.0 | 6.0 | 0.00 | 0.00 | 0.00 | 97 | 1005.0 |
| 20260508001504 | 75 | 333 | 4.0 | 8.0 | 0.00 | 0.00 | 0.00 | 96 | 1005.0 |
| 20260508000004 | 75 | 320 | 4.0 | 8.0 | 0.00 | 0.00 | 0.00 | 96 | 1005.1 |
| 20260507234505 | 75 | 319 | 4.0 | 8.0 | 0.00 | 0.00 | 0.00 | 96 | 1005.1 |
| 20260507233004 | 75 | 320 | 4.0 | 8.0 | 0.00 | 0.00 | 0.00 | 95 | 1005.3 |
| 20260507231504 | 75 | 319 | 4.0 | 8.0 | 0.00 | 0.00 | 0.00 | 94 | 1005.3 |
| 20260507230005 | 75 | 323 | 4.0 | 8.0 | 0.00 | 0.00 | 0.00 | 95 | 1005.3 |
| 20260507224504 | 75 | 321 | 4.0 | 7.0 | 0.00 | 0.00 | 0.00 | 96 | 1005.4 |
| 20260507223004 | 74 | 334 | 4.0 | 8.0 | 0.00 | 0.00 | 0.00 | 96 | 1005.4 |
| 20260507221504 | 75 | 314 | 4.0 | 8.0 | 0.00 | 0.00 | 0.00 | 96 | 1005.0 |
| 20260507220004 | 75 | 324 | 4.0 | 9.0 | 0.00 | 0.00 | 0.00 | 95 | 1005.1 |
| 20260507214504 | 75 | 349 | 5.0 | 9.0 | 0.00 | 0.00 | 0.00 | 95 | 1005.0 |
| 20260507213004 | 75 | 326 | 4.0 | 10.0 | 0.00 | 0.00 | 0.00 | 95 | 1004.7 |
| 20260507211504 | 75 | 335 | 4.0 | 8.0 | 0.00 | 0.00 | 0.00 | 94 | 1004.9 |
| 20260507210004 | 75 | 337 | 5.0 | 11.0 | 0.00 | 0.00 | 0.00 | 92 | 1004.6 |
| 20260507204504 | 75 | 330 | 5.0 | 11.0 | 0.00 | 0.00 | 0.00 | 91 | 1004.4 |
| 20260507203004 | 76 | 326 | 5.0 | 11.0 | 0.00 | 0.00 | 0.00 | 88 | 1004.3 |
| 20260507201504 | 76 | 339 | 6.0 | 12.0 | 0.00 | 0.00 | 0.00 | 86 | 1004.4 |
| 20260507200004 | 77 | 349 | 5.0 | 11.0 | 0.00 | 0.00 | 0.00 | 83 | 1004.4 |
| 20260507194504 | 79 | 315 | 7.0 | 14.0 | 0.00 | 0.00 | 0.00 | 78 | 1004.1 |
| 20260507193004 | 80 | 323 | 6.0 | 12.0 | 0.00 | 0.00 | 0.00 | 77 | 1004.1 |
| 20260507191503 | 81 | 324 | 7.0 | 12.0 | 0.00 | 0.00 | 0.00 | 76 | 1004.3 |
| 20260507190005 | 81 | 328 | 7.0 | 15.0 | 0.00 | 0.00 | 0.00 | 75 | 1004.3 |
| 20260507184504 | 81 | 326 | 7.0 | 15.0 | 0.00 | 0.00 | 0.00 | 75 | 1004.3 |
| 20260507183004 | 79 | 336 | 5.0 | 9.0 | 0.00 | 0.00 | 0.00 | 76 | 1004.4 |
| 20260507181504 | 81 | 330 | 7.0 | 11.0 | 0.00 | 0.00 | 0.00 | 73 | 1004.5 |
| 20260507180004 | 82 | 326 | 6.0 | 11.0 | 0.00 | 0.00 | 0.00 | 69 | 1004.6 |
| 20260507174504 | 83 | 325 | 6.0 | 11.0 | 0.00 | 0.00 | 0.00 | 68 | 1004.6 |
| 20260507173004 | 83 | 319 | 6.0 | 11.0 | 0.00 | 0.00 | 0.00 | 67 | 1005.0 |
| 20260507171504 | 84 | 336 | 5.0 | 8.0 | 0.00 | 0.00 | 0.00 | 66 | 1005.1 |
| 20260507170004 | 83 | 335 | 5.0 | 9.0 | 0.00 | 0.00 | 0.00 | 68 | 1005.3 |
| 20260507164504 | 80 | 343 | 6.0 | 13.0 | 0.00 | 0.00 | 0.00 | 72 | 1005.5 |
| 20260507163004 | 83 | 335 | 5.0 | 11.0 | 0.00 | 0.00 | 0.00 | 69 | 1005.8 |
| 20260507161504 | 82 | 316 | 6.0 | 11.0 | 0.00 | 0.00 | 0.00 | 70 | 1006.5 |
| 20260507160004 | 80 | 345 | 6.0 | 14.0 | 0.00 | 0.00 | 0.00 | 73 | 1006.8 |
| 20260507154504 | 79 | 325 | 5.0 | 8.0 | 0.00 | 0.00 | 0.00 | 77 | 1007.2 |
| 20260507153004 | 78 | 316 | 5.0 | 10.0 | 0.00 | 0.00 | 0.00 | 78 | 1007.7 |
| 20260507151504 | 78 | 326 | 5.0 | 10.0 | 0.00 | 0.00 | 0.00 | 78 | 1008.0 |
| 20260507150005 | 79 | 322 | 5.0 | 11.0 | 0.00 | 0.00 | 0.00 | 76 | 1008.3 |
| 20260507144504 | 79 | 320 | 5.0 | 10.0 | 0.00 | 0.00 | 0.00 | 77 | 1008.8 |
| 20260507143004 | 78 | 323 | 6.0 | 10.0 | 0.00 | 0.00 | 0.00 | 77 | 1008.9 |
| 20260507141504 | 78 | 340 | 5.0 | 11.0 | 0.00 | 0.00 | 0.00 | 79 | 1009.3 |
| 20260507140005 | 78 | 333 | 6.0 | 11.0 | 0.00 | 0.00 | 0.00 | 78 | 1009.5 |
| 20260507134504 | 78 | 310 | 5.0 | 11.0 | 0.00 | 0.00 | 0.00 | 81 | 1009.7 |
| 20260507133004 | 77 | 318 | 6.0 | 11.0 | 0.00 | 0.00 | 0.00 | 82 | 1010.2 |
| 20260507131504 | 76 | 320 | 6.0 | 13.0 | 0.00 | 0.00 | 0.00 | 82 | 1010.4 |
| 20260507130004 | 76 | 310 | 6.0 | 11.0 | 0.00 | 0.00 | 0.00 | 82 | 1010.3 |
| 20260507124504 | 76 | 307 | 4.0 | 10.0 | 0.00 | 0.00 | 0.00 | 83 | 1010.6 |
| 20260507123004 | 76 | 324 | 5.0 | 11.0 | 0.00 | 0.00 | 0.00 | 84 | 1010.8 |
| 20260507121504 | 75 | 337 | 5.0 | 11.0 | 0.00 | 0.00 | 0.00 | 85 | 1011.0 |
| 20260507120005 | 75 | 329 | 4.0 | 7.0 | 0.00 | 0.00 | 0.00 | 87 | 1011.2 |
| 20260507114504 | 75 | 324 | 4.0 | 9.0 | 0.00 | 0.00 | 0.00 | 90 | 1011.1 |
| 20260507113004 | 74 | 316 | 4.0 | 10.0 | 0.00 | 0.00 | 0.00 | 92 | 1011.3 |
| 20260507111504 | 74 | 329 | 4.0 | 8.0 | 0.00 | 0.00 | 0.00 | 93 | 1011.1 |
| 20260507110005 | 73 | 345 | 3.0 | 5.0 | 0.00 | 0.00 | 0.00 | 95 | 1011.2 |
| 20260507104504 | 73 | 340 | 3.0 | 8.0 | 0.00 | 0.00 | 0.00 | 97 | 1011.0 |
| 20260507103004 | 73 | 331 | 3.0 | 5.0 | 0.00 | 0.00 | 0.00 | 97 | 1010.9 |
| 20260507101504 | 73 | 321 | 3.0 | 6.0 | 0.00 | 0.00 | 0.00 | 99 | 1011.0 |
| 20260507100004 | 73 | 329 | 3.0 | 6.0 | 0.00 | 0.00 | 0.00 | 99 | 1011.0 |
| 20260507094504 | 72 | 325 | 2.0 | 4.0 | 0.00 | 0.00 | 0.00 | 99 | 1011.0 |
| 20260507093004 | 72 | 322 | 3.0 | 4.0 | 0.00 | 0.00 | 0.00 | 99 | 1011.2 |
| 20260507091505 | 72 | 321 | 3.0 | 6.0 | 0.00 | 0.00 | 0.00 | 99 | 1010.9 |
| 20260507090005 | 72 | 331 | 3.0 | 5.0 | 0.00 | 0.00 | 0.00 | 99 | 1010.8 |
| 20260507084504 | 72 | 333 | 2.0 | 4.0 | 0.00 | 0.00 | 0.00 | 99 | 1010.7 |
| 20260507083005 | 72 | 332 | 2.0 | 4.0 | 0.00 | 0.00 | 0.00 | 99 | 1010.7 |
| 20260507081504 | 72 | 316 | 2.0 | 5.0 | 0.00 | 0.00 | 0.00 | 99 | 1010.5 |
| 20260507080005 | 72 | 338 | 2.0 | 5.0 | 0.00 | 0.00 | 0.00 | 99 | 1010.5 |
| 20260507074504 | 72 | 337 | 3.0 | 5.0 | 0.00 | 0.00 | 0.00 | 99 | 1010.4 |
| 20260507071504 | 72 | 328 | 2.0 | 8.0 | 0.00 | 0.00 | 0.00 | 99 | 1010.6 |
| 20260507070008 | 73 | 326 | 2.0 | 6.0 | 0.00 | 0.00 | 0.00 | 99 | 1010.7 |
| 20260507064504 | 73 | 328 | 2.0 | 6.0 | 0.00 | 0.00 | 0.00 | 99 | 1011.1 |
| 20260507063004 | 73 | 344 | 2.0 | 4.0 | 0.00 | 0.00 | 0.00 | 99 | 1011.3 |
| 20260507061504 | 73 | 333 | 2.0 | 4.0 | 0.00 | 0.00 | 0.00 | 99 | 1011.3 |
| 20260507060004 | 72 | 323 | 2.0 | 3.0 | 0.00 | 0.00 | 0.00 | 99 | 1011.7 |
| 20260507054505 | 73 | 341 | 2.0 | 4.0 | 0.00 | 0.00 | 0.00 | 99 | 1011.8 |
| 20260507053005 | 73 | 321 | 3.0 | 4.0 | 0.00 | 0.00 | 0.00 | 99 | 1012.0 |
| 20260507051504 | 72 | 331 | 2.0 | 4.0 | 0.00 | 0.00 | 0.00 | 99 | 1012.3 |
| 20260507050005 | 72 | 325 | 2.0 | 4.0 | 0.00 | 0.00 | 0.00 | 99 | 1012.3 |
| 20260507044504 | 72 | 317 | 2.0 | 4.0 | 0.00 | 0.00 | 0.00 | 99 | 1012.2 |
| 20260507043004 | 72 | 331 | 2.0 | 5.0 | 0.00 | 0.00 | 0.00 | 99 | 1012.6 |
| 20260507041504 | 72 | 324 | 2.0 | 4.0 | 0.00 | 0.00 | 0.00 | 99 | 1012.7 |
| 20260507040005 | 72 | 331 | 2.0 | 4.0 | 0.00 | 0.00 | 0.00 | 99 | 1012.9 |
| 20260507034504 | 72 | 325 | 3.0 | 5.0 | 0.00 | 0.00 | 0.00 | 99 | 1013.1 |
| 20260507033004 | 73 | 329 | 3.0 | 6.0 | 0.00 | 0.00 | 0.00 | 99 | 1013.2 |
| 20260507031504 | 73 | 324 | 3.0 | 7.0 | 0.00 | 0.00 | 0.00 | 99 | 1013.4 |
| 20260507030004 | 72 | 334 | 3.0 | 6.0 | 0.00 | 0.00 | 0.00 | 99 | 1013.3 |
| 20260507024504 | 72 | 329 | 3.0 | 8.0 | 0.00 | 0.00 | 0.00 | 99 | 1013.4 |